This is the latest recevied weather packets stored in our database for station/object KD5HIA. If no packets are shown the sender has not sent any weather packets the latest 10 day(s).
| Time | Temp. | Humidity | Pressure | Rain* | Wind** | Luminosity | Snow |
|---|---|---|---|---|---|---|---|
| 1777951817 | 24.44° C | 62% | 1007.5 hPa | 0 mm | - | 0 W/m² | - |
| 1777951217 | 25° C | 61% | 1007.4 hPa | 0 mm | - | 0 W/m² | - |
| 1777950617 | 25° C | 60% | 1007.5 hPa | 0 mm | - | 0 W/m² | - |
| 1777950017 | 25° C | 59% | 1007.3 hPa | 0 mm | - | 0 W/m² | - |
| 1777949417 | 25° C | 58% | 1007 hPa | 0 mm | - | 0 W/m² | - |
| 1777948817 | 25.56° C | 57% | 1007 hPa | 0 mm | - | 0 W/m² | - |
| 1777948217 | 25.56° C | 57% | 1007 hPa | 0 mm | - | 0 W/m² | - |
| 1777947617 | 26.11° C | 56% | 1006.9 hPa | 0 mm | - | 0 W/m² | - |
| 1777947017 | 26.11° C | 55% | 1006.9 hPa | 0 mm | - | 0 W/m² | - |
| 1777946417 | 26.11° C | 55% | 1006.9 hPa | 0 mm | - | 0 W/m² | - |
| 1777945817 | 26.67° C | 53% | 1006.6 hPa | 0 mm | - | 0 W/m² | - |
| 1777945217 | 26.67° C | 52% | 1006.6 hPa | 0 mm | - | 0 W/m² | - |
| 1777944617 | 27.22° C | 51% | 1006.8 hPa | 0 mm | - | 0 W/m² | - |
| 1777944017 | 27.22° C | 50% | 1006.7 hPa | 0 mm | - | 5 W/m² | - |
| 1777943417 | 27.78° C | 50% | 1006.8 hPa | 0 mm | - | 16 W/m² | - |
| 1777942817 | 27.78° C | 49% | 1006.9 hPa | 0 mm | - | 32 W/m² | - |
| 1777942217 | 28.33° C | 48% | 1006.9 hPa | 0 mm | - | 39 W/m² | - |
| 1777941617 | 28.33° C | 47% | 1006.9 hPa | 0 mm | - | 44 W/m² | - |
| 1777941017 | 28.33° C | 46% | 1006.9 hPa | 0 mm | - | 57 W/m² | - |
| 1777940417 | 28.89° C | 45% | 1006.9 hPa | 0 mm | - | 74 W/m² | - |
| 1777939817 | 28.89° C | 45% | 1006.9 hPa | 0 mm | - | 77 W/m² | - |
| 1777939217 | 29.44° C | 44% | 1007 hPa | 0 mm | - | 151 W/m² | - |
| 1777938617 | 30° C | 44% | 1007.3 hPa | 0 mm | - | 257 W/m² | - |
| 1777938017 | 30° C | 43% | 1007.2 hPa | 0 mm | - | 178 W/m² | - |
| 1777937417 | 30.56° C | 42% | 1007.3 hPa | 0 mm | - | 337 W/m² | - |
* Rain latest hour (hover to see other rain measurements)
** Current wind speed in m/s (hover to see current wind gust speed)